Location: Fxbg
(38.3018°N, 77.4708°W)
Time: 07:39:18
(UTC-05:00)

ISS - Visible Passes

Search period start: 18 December 2018 00:00
Search period end: 28 December 2018 00:00
Orbit: 401 x 408 km, 51.6° (Epoch: 19 December)

Date Brightness Start Highest point End Pass type
(mag) Time Alt. Az. Time Alt. Az. Time Alt. Az.
21 Dec -0.5 06:30:20 10° SSE 06:32:18 15° SE 06:34:17 10° E visible
23 Dec -2.2 06:21:02 10° SSW 06:24:07 38° SE 06:27:12 10° ENE visible
24 Dec -1.1 05:29:37 10° S 05:32:02 19° SE 05:34:27 10° E visible
25 Dec -3.9 06:13:02 12° SW 06:16:01 78° NW 06:19:18 10° NE visible
26 Dec -2.9 05:24:09 47° ESE 05:24:09 47° ESE 05:27:00 10° ENE visible
27 Dec -3.0 06:07:33 31° NW 06:08:02 33° NNW 06:11:03 10° NE visible
